FW7820 Weather Reports


time (UTC)temp
C
wind
direction
speed
KPH
gust
KPH
rain 1hr
cm
rain 24hr
cm
rain mn
cm
humidity
%
barometer
mb
20260510104726 17 5 0.0 0.0 0.00 0.00 0.00 99 1014.3
20260510104224 17 354 0.0 0.0 0.00 0.00 0.00 99 1014.2
20260510103720 17 34 0.0 0.0 0.00 0.00 0.00 99 1014.1
20260510103217 17 26 0.0 0.0 0.00 0.00 0.00 99 1014.0
20260510102717 17 32 0.0 0.0 0.00 0.00 0.00 99 1014.1
20260510102213 17 33 0.0 0.0 0.00 0.00 0.00 99 1014.0
20260510101711 17 30 0.0 0.0 0.00 0.00 0.00 99 1013.9
20260510101209 17 19 0.0 0.0 0.00 0.00 0.00 99 1013.8
20260510100704 17 15 0.0 0.0 0.00 0.00 0.00 99 1013.9
20260510100202 17 359 0.0 1.6 0.00 0.00 0.00 99 1013.8
20260510095657 17 13 0.0 0.0 0.00 0.00 0.00 99 1013.6
20260510095153 17 357 0.0 1.6 0.00 0.00 0.00 99 1013.6
20260510094651 17 6 0.0 1.6 0.00 0.00 0.00 99 1013.7
20260510094148 17 44 0.0 0.0 0.00 0.00 0.00 99 1013.7
20260510093644 17 43 0.0 0.0 0.00 0.00 0.00 99 1013.6
20260510093141 17 47 0.0 0.0 0.00 0.00 0.00 99 1013.6
20260510092638 17 34 0.0 0.0 0.00 0.00 0.00 99 1013.5
20260510092133 17 44 0.0 0.0 0.00 0.00 0.00 99 1013.6
20260510091629 17 43 0.0 0.0 0.00 0.00 0.00 99 1013.4
20260510091125 17 44 0.0 0.0 0.00 0.00 0.00 99 1013.7
20260510090623 17 44 0.0 0.0 0.00 0.00 0.00 99 1013.8
20260510090119 17 34 0.0 0.0 0.00 0.00 0.00 99 1013.9
20260510085614 17 34 0.0 0.0 0.00 0.00 0.00 99 1013.9
20260510085109 17 33 0.0 0.0 0.00 0.00 0.00 99 1013.9
20260510084606 17 33 0.0 0.0 0.00 0.00 0.00 99 1013.6
20260510084103 17 33 0.0 0.0 0.00 0.00 0.00 99 1013.6
20260510083559 17 33 0.0 0.0 0.00 0.00 0.00 99 1013.7
20260510083055 17 33 0.0 0.0 0.00 0.00 0.00 99 1013.8
20260510082553 17 33 0.0 0.0 0.00 0.00 0.00 99 1013.6
20260510082048 17 33 0.0 0.0 0.00 0.00 0.00 99 1013.6
20260510081543 17 33 0.0 0.0 0.00 0.00 0.00 99 1013.6
20260510081039 17 33 0.0 0.0 0.00 0.00 0.00 99 1013.4
20260510080538 17 33 0.0 0.0 0.00 0.00 0.00 99 1013.5
20260510080035 17 50 0.0 0.0 0.00 0.00 0.00 99 1013.3
20260510075533 17 49 0.0 0.0 0.00 0.00 0.00 99 1013.1
20260510075029 17 57 0.0 0.0 0.00 0.00 0.00 99 1013.3
20260510074527 17 36 0.0 0.0 0.00 0.00 0.00 99 1013.1
20260510074022 17 36 0.0 0.0 0.00 0.00 0.00 99 1012.9
20260510073518 17 36 0.0 0.0 0.00 0.00 0.00 99 1013.1
20260510073016 17 44 0.0 0.0 0.00 0.00 0.00 99 1013.2
20260510072512 17 44 0.0 0.0 0.00 0.00 0.00 99 1013.0
20260510072008 17 43 0.0 0.0 0.00 0.00 0.00 99 1013.2
20260510071504 17 51 0.0 0.0 0.00 0.00 0.00 99 1013.1
20260510071003 17 56 0.0 0.0 0.00 0.00 0.00 99 1013.0
20260510070459 17 43 0.0 0.0 0.00 0.00 0.00 99 1013.1
20260510065955 17 43 0.0 0.0 0.00 0.00 0.00 99 1013.0
20260510065452 17 50 0.0 0.0 0.00 0.00 0.00 99 1013.2
20260510064948 17 50 0.0 0.0 0.00 0.00 0.00 99 1013.0
20260510064446 16 50 0.0 0.0 0.00 0.00 0.00 99 1013.1
20260510063942 16 51 0.0 0.0 0.00 0.00 0.00 99 1013.1
20260510063438 17 52 0.0 0.0 0.00 0.00 0.00 99 1012.9
20260510062937 17 52 0.0 0.0 0.00 0.00 0.00 99 1012.9
20260510062437 16 42 0.0 0.0 0.00 0.00 0.00 99 1013.2
20260510061932 17 34 0.0 0.0 0.00 0.00 0.00 99 1013.0
20260510061429 17 45 0.0 0.0 0.00 0.00 0.00 99 1013.0
20260510060925 17 61 0.0 0.0 0.00 0.00 0.00 99 1012.7
20260510060422 17 16 0.0 0.0 0.00 0.00 0.00 99 1013.2
20260510055919 17 70 0.0 0.0 0.00 0.00 0.00 99 1012.9
20260510055415 17 34 0.0 0.0 0.00 0.00 0.00 99 1012.9
20260510054913 17 34 0.0 0.0 0.00 0.00 0.00 99 1013.0
20260510054408 17 34 0.0 0.0 0.00 0.00 0.00 99 1012.8
20260510053903 17 50 0.0 0.0 0.00 0.00 0.00 99 1012.9
20260510053359 17 58 0.0 0.0 0.00 0.00 0.00 99 1012.8
20260510052855 17 52 0.0 0.0 0.00 0.00 0.00 99 1012.9
20260510052351 17 53 0.0 0.0 0.00 0.00 0.00 99 1013.1
20260510051847 17 47 0.0 0.0 0.00 0.00 0.00 99 1013.0
20260510051344 17 52 0.0 0.0 0.00 0.00 0.00 99 1012.9
20260510050841 17 50 0.0 0.0 0.00 0.00 0.00 99 1012.9
20260510050338 17 63 0.0 0.0 0.00 0.00 0.00 99 1012.9
20260510045835 17 56 0.0 0.0 0.00 2.26 2.26 99 1013.1
20260510045331 17 58 0.0 0.0 0.00 2.26 2.26 99 1012.9
20260510044829 17 63 0.0 0.0 0.00 2.26 2.26 99 1012.8
20260510044326 17 34 0.0 0.0 0.00 2.26 2.26 99 1013.2
20260510043822 17 34 0.0 0.0 0.00 2.26 2.26 99 1013.3
20260510043318 17 34 0.0 0.0 0.00 2.26 2.26 99 1013.2
20260510042816 17 34 0.0 0.0 0.00 2.26 2.26 99 1013.3
20260510042312 17 34 0.0 0.0 0.00 2.26 2.26 99 1013.4
20260510041808 17 30 0.0 0.0 0.00 2.26 2.26 99 1013.4
20260510041306 17 44 0.0 0.0 0.00 2.26 2.26 99 1013.3
20260510040803 17 63 0.0 0.0 0.00 2.26 2.26 99 1013.6
20260510040259 17 65 0.0 0.0 0.00 2.26 2.26 99 1013.5
20260510035755 17 63 0.0 0.0 0.00 2.26 2.26 99 1013.7
20260510035251 17 63 0.0 0.0 0.00 2.26 2.26 99 1013.8
20260510034747 17 64 0.0 0.0 0.00 2.26 2.26 99 1013.7
20260510034245 17 66 0.0 0.0 0.00 2.26 2.26 99 1013.7
20260510033741 17 58 0.0 0.0 0.00 2.26 2.26 99 1013.8
20260510033238 17 64 0.0 0.0 0.00 2.26 2.26 99 1013.7
20260510032734 17 58 0.0 0.0 0.00 2.26 2.26 99 1013.8
20260510032231 17 59 0.0 0.0 0.00 2.26 2.26 99 1013.7
20260510031725 17 59 0.0 0.0 0.00 2.26 2.26 99 1013.7
20260510031222 18 52 0.0 0.0 0.00 2.26 2.26 99 1013.6
20260510030721 18 50 0.0 0.0 0.00 2.26 2.26 99 1013.5
20260510030219 17 50 0.0 0.0 0.00 2.26 2.26 99 1013.2
20260510025716 18 51 0.0 0.0 0.00 2.26 2.26 99 1013.1
20260510025214 17 68 0.0 0.0 0.00 2.26 2.26 99 1013.4
20260510024710 17 63 0.0 0.0 0.00 2.26 2.26 99 1013.6
20260510024207 17 63 0.0 0.0 0.00 2.26 2.26 99 1013.7
20260510023702 17 45 0.0 0.0 0.00 2.26 2.26 99 1013.5
20260510023200 18 49 0.0 0.0 0.00 2.26 2.26 99 1013.4
20260510022656 18 63 0.0 0.0 0.00 2.26 2.26 99 1013.2
20260510022150 18 65 0.0 0.0 0.00 2.26 2.26 99 1013.3
20260510021646 18 58 0.0 0.0 0.00 2.26 2.26 99 1013.6
20260510021144 18 57 0.0 0.0 0.00 2.26 2.26 99 1013.6
20260510020638 18 63 0.0 0.0 0.00 2.26 2.26 99 1013.7
20260510020133 18 67 0.0 0.0 0.00 2.26 2.26 99 1013.7
20260510015630 18 39 0.0 0.0 0.00 2.26 2.26 99 1013.7
20260510015126 18 63 0.0 0.0 0.00 2.26 2.26 99 1013.5
20260510014621 18 30 0.0 0.0 0.00 2.26 2.26 99 1013.5
20260510014120 18 20 0.0 0.0 0.00 2.26 2.26 99 1013.2
20260510013619 18 35 0.0 0.0 0.00 2.26 2.26 99 1013.4
20260510013115 18 35 0.0 0.0 0.00 2.26 2.26 99 1013.4
20260510012614 18 35 0.0 0.0 0.00 2.26 2.26 99 1013.1
20260510012111 18 3 0.0 0.0 0.00 2.26 2.26 99 1013.2
20260510011610 18 21 0.0 0.0 0.00 2.26 2.26 99 1012.9
20260510011107 18 38 0.0 0.0 0.00 2.26 2.26 99 1012.7
20260510010603 18 47 0.0 0.0 0.00 2.26 2.26 99 1012.7
20260510010101 18 43 0.0 0.0 0.00 2.26 2.26 99 1012.5
20260510005556 18 53 0.0 0.0 0.00 2.26 2.26 99 1012.8
20260510005054 18 48 0.0 0.0 0.00 2.26 2.26 99 1012.8
20260510004552 18 50 0.0 0.0 0.00 2.26 2.26 99 1012.7
20260510004049 18 11 0.0 0.0 0.00 2.26 2.26 99 1012.8
20260510003546 18 68 0.0 0.0 0.00 2.26 2.26 99 1012.7
20260510003041 18 55 0.0 0.0 0.00 2.26 2.26 99 1013.0
20260510002537 18 35 0.0 0.0 0.00 2.26 2.26 99 1012.6
20260510002034 18 86 1.6 1.6 0.00 2.26 2.26 99 1012.6
20260510001531 18 338 1.6 1.6 0.00 2.26 2.26 99 1012.4
20260510001030 18 55 0.0 0.0 0.00 2.26 2.26 99 1011.9
20260510000524 18 56 0.0 0.0 0.00 2.26 2.26 99 1012.1
20260510000021 18 10 0.0 0.0 0.00 2.26 2.26 99 1012.3
20260509235518 18 45 0.0 0.0 0.00 2.26 2.26 99 1012.2
20260509235015 18 45 0.0 0.0 0.00 2.26 2.26 99 1012.3
20260509234511 18 42 0.0 0.0 0.00 2.26 2.26 99 1012.3
20260509234009 18 48 0.0 0.0 0.00 2.26 2.26 99 1011.9
20260509233507 18 59 0.0 0.0 0.00 2.26 2.26 99 1012.0
20260509233004 18 63 0.0 0.0 0.00 2.26 2.26 99 1012.0
20260509232500 18 48 0.0 0.0 0.00 2.26 2.26 99 1012.2
20260509231956 18 70 0.0 0.0 0.00 2.26 2.26 99 1012.2
20260509231453 18 61 0.0 0.0 0.00 2.26 2.26 99 1012.2
20260509230951 18 63 0.0 0.0 0.00 2.26 2.26 99 1012.3
20260509230447 18 54 0.0 0.0 0.00 2.26 2.26 99 1012.1
20260509225944 18 45 0.0 0.0 0.00 2.26 2.26 99 1012.0
20260509225440 18 46 0.0 0.0 0.00 2.26 2.26 99 1012.0
20260509224936 18 40 0.0 0.0 0.00 2.26 2.26 99 1011.8
20260509224431 18 51 0.0 0.0 0.00 2.26 2.26 99 1011.5
20260509223929 18 45 0.0 0.0 0.00 2.26 2.26 99 1011.8
20260509223425 18 57 0.0 0.0 0.00 2.26 2.26 99 1011.9
20260509222923 18 43 0.0 0.0 0.00 2.26 2.26 99 1011.6
20260509222418 19 58 0.0 0.0 0.00 2.26 2.26 99 1011.5
20260509221914 19 58 0.0 0.0 0.00 2.26 2.26 99 1011.4
20260509221411 18 58 0.0 0.0 0.00 2.26 2.26 99 1011.6
20260509220907 18 58 0.0 0.0 0.00 2.26 2.26 99 1011.4
20260509220403 18 54 0.0 0.0 0.00 2.26 2.26 99 1011.4
20260509215858 18 54 0.0 0.0 0.00 2.26 2.26 99 1011.3
20260509215355 18 54 0.0 0.0 0.00 2.26 2.26 99 1011.2
20260509214852 18 46 0.0 0.0 0.00 2.26 2.26 99 1011.2
20260509214349 18 44 0.0 0.0 0.00 2.26 2.26 99 1011.2
20260509213846 18 52 0.0 0.0 0.00 2.26 2.26 99 1011.1
20260509213341 18 63 0.0 0.0 0.00 2.26 2.26 99 1011.0
20260509212839 18 68 0.0 0.0 0.00 2.26 2.26 99 1011.1
20260509212337 18 52 0.0 0.0 0.00 2.26 2.26 99 1011.1
20260509211832 18 39 0.0 0.0 0.00 2.26 2.26 99 1011.0
20260509211328 18 61 0.0 0.0 0.00 2.26 2.26 99 1011.1
20260509210825 18 71 0.0 0.0 0.00 2.26 2.26 99 1011.2
20260509210323 18 71 0.0 0.0 0.00 2.26 2.26 99 1011.1
20260509205822 18 42 0.0 0.0 0.00 2.26 2.26 99 1011.4
20260509205317 18 44 0.0 0.0 0.00 2.26 2.26 99 1011.4
20260509204814 18 68 0.0 0.0 0.00 2.26 2.26 99 1011.5
20260509204310 18 68 0.0 0.0 0.00 2.26 2.26 99 1011.7
20260509203807 18 68 0.0 0.0 0.00 2.26 2.26 99 1011.4
20260509203304 18 89 0.0 1.6 0.00 2.26 2.26 99 1011.7
20260509202800 18 81 0.0 0.0 0.00 2.26 2.26 99 1011.8
20260509202256 18 67 0.0 0.0 0.00 2.26 2.26 99 1012.0
20260509201755 18 73 0.0 0.0 0.00 2.26 2.26 99 1011.8
20260509201252 18 77 0.0 0.0 0.00 2.26 2.26 99 1011.7
20260509200749 19 62 0.0 0.0 0.00 2.26 2.26 99 1011.8
20260509200244 18 55 0.0 0.0 0.00 2.26 2.26 99 1011.6
20260509195740 18 62 0.0 0.0 0.00 2.26 2.26 99 1011.5
20260509195236 18 53 0.0 0.0 0.00 2.26 2.26 99 1011.8
20260509194731 19 65 0.0 0.0 0.00 2.26 2.26 99 1011.7
20260509194227 19 55 0.0 0.0 0.00 2.26 2.26 99 1011.6
20260509193724 18 60 0.0 0.0 0.00 2.26 2.26 99 1011.7
20260509193224 18 62 0.0 0.0 0.00 2.26 2.26 99 1011.8
20260509192720 18 76 0.0 0.0 0.00 2.26 2.26 99 1012.0
20260509192215 18 76 0.0 0.0 0.00 2.26 2.26 99 1012.1
20260509191711 18 74 0.0 0.0 0.00 2.26 2.26 99 1012.2
20260509191207 18 78 0.0 0.0 0.00 2.26 2.26 99 1012.2
20260509190704 18 74 0.0 0.0 0.00 2.26 2.26 99 1012.1
20260509190201 18 71 0.0 0.0 0.00 2.26 2.26 99 1012.4
20260509185659 18 80 0.0 0.0 0.00 2.26 2.26 99 1012.2
20260509185154 19 64 0.0 0.0 0.00 2.26 2.26 99 1012.1
20260509184652 19 51 0.0 0.0 0.00 2.26 2.26 99 1011.9
20260509184149 19 18 0.0 0.0 0.00 2.26 2.26 99 1012.0
20260509183645 19 71 0.0 0.0 0.00 2.26 2.26 99 1011.9
20260509183140 19 71 0.0 0.0 0.00 2.26 2.26 99 1011.9
20260509182636 19 56 0.0 0.0 0.00 2.26 2.26 99 1012.0
20260509182134 18 59 0.0 0.0 0.00 2.26 2.26 99 1011.9
20260509181632 18 69 0.0 0.0 0.00 2.26 2.26 99 1012.0
20260509181129 18 60 0.0 0.0 0.00 2.26 2.26 99 1012.0
20260509180625 19 73 0.0 0.0 0.00 2.26 2.26 99 1011.9
20260509180122 18 58 0.0 0.0 0.00 2.26 2.26 99 1011.9
20260509175617 18 58 0.0 0.0 0.00 2.26 2.26 99 1011.8
20260509175115 18 90 0.0 0.0 0.00 2.26 2.26 99 1012.0
20260509174611 18 63 0.0 0.0 0.00 2.26 2.26 99 1011.8
20260509174106 18 64 0.0 0.0 0.00 2.26 2.26 99 1011.8
20260509173601 19 73 0.0 0.0 0.00 2.26 2.26 99 1011.8
20260509173058 18 51 0.0 0.0 0.00 2.26 2.26 99 1012.1
20260509172555 18 47 0.0 0.0 0.00 2.26 2.26 99 1012.2
20260509172050 18 21 0.0 0.0 0.00 2.26 2.26 99 1012.2
20260509171546 18 252 0.0 0.0 0.00 2.26 2.26 99 1012.5
20260509171043 18 31 0.0 0.0 0.00 2.26 2.26 99 1012.3
20260509170539 18 37 0.0 0.0 0.00 2.26 2.26 99 1012.4
20260509170035 18 36 0.0 0.0 0.00 2.26 2.26 99 1012.5
20260509165534 18 37 0.0 0.0 0.00 2.26 2.26 99 1012.5
20260509165029 18 31 0.0 0.0 0.00 2.26 2.26 99 1013.0
20260509164526 18 63 0.0 0.0 0.00 2.26 2.26 99 1013.0
20260509164021 18 61 0.0 0.0 0.00 2.26 2.26 99 1013.3
20260509163519 18 43 0.0 0.0 0.00 2.26 2.26 99 1013.2
20260509163014 18 54 0.0 0.0 0.00 2.26 2.26 99 1013.2
20260509162512 18 43 0.0 0.0 0.00 2.26 2.26 99 1013.1
20260509162008 18 41 0.0 0.0 0.00 2.26 2.26 99 1013.4
20260509161505 18 65 0.0 0.0 0.00 2.26 2.26 99 1013.1
20260509160959 18 15 0.0 1.6 0.00 2.26 2.26 99 1013.0
20260509160455 18 6 0.0 0.0 0.00 2.26 2.26 99 1012.8
20260509155950 18 355 0.0 0.0 0.00 2.26 2.26 99 1012.8
20260509155447 18 24 0.0 0.0 0.00 2.26 2.26 99 1012.6
20260509154944 17 36 0.0 0.0 0.00 2.26 2.26 99 1012.5
20260509154440 17 36 0.0 0.0 0.00 2.26 2.26 99 1012.6
20260509153937 17 17 0.0 0.0 0.00 2.26 2.26 99 1012.4
20260509153434 17 306 0.0 1.6 0.00 2.26 2.26 99 1012.1
20260509152931 18 93 0.0 0.0 0.00 2.26 2.26 99 1012.2
20260509152427 17 93 0.0 0.0 0.00 2.26 2.26 99 1012.3
20260509151924 17 93 0.0 0.0 0.00 2.26 2.26 99 1012.6
20260509151420 17 93 0.0 0.0 0.00 2.26 2.26 99 1012.6
20260509150919 17 45 0.0 0.0 0.00 2.26 2.26 99 1012.6
20260509150415 17 27 0.0 0.0 0.00 2.26 2.26 99 1012.5
20260509145914 17 52 0.0 0.0 0.00 2.26 2.26 99 1012.1
20260509145413 17 45 0.0 1.6 0.00 2.26 2.26 99 1012.4
20260509144909 17 56 0.0 0.0 0.00 2.26 2.26 99 1012.3
20260509144406 17 56 0.0 0.0 0.00 2.26 2.26 99 1012.4
20260509143903 17 57 0.0 0.0 0.00 2.26 2.26 99 1012.4
20260509143401 17 22 0.0 0.0 0.00 2.26 2.26 99 1012.2
20260509142857 17 6 0.0 0.0 0.00 2.26 2.26 99 1011.9
20260509142354 17 35 0.0 0.0 0.00 2.26 2.26 99 1011.4
20260509141849 17 44 1.6 3.2 0.00 2.26 2.26 99 1011.8
20260509141346 17 2 0.0 0.0 0.13 2.26 2.26 99 1011.1
20260509140843 17 291 1.6 1.6 0.30 2.26 2.26 99 1010.8
20260509140340 17 86 0.0 0.0 0.30 2.24 2.24 99 1011.3
20260509135838 17 89 0.0 0.0 0.61 2.21 2.21 99 1011.7
20260509135335 17 92 0.0 0.0 0.79 2.18 2.18 99 1011.7
20260509134832 17 43 0.0 0.0 0.43 2.11 2.11 99 1011.6
20260509134329 17 57 0.0 0.0 0.48 2.06 2.06 99 1012.1
20260509133826 17 51 0.0 0.0 0.79 2.03 2.03 99 1012.2
20260509133323 17 44 0.0 0.0 0.89 1.98 1.98 99 1011.9
20260509132822 17 65 0.0 0.0 0.79 1.91 1.91 99 1012.0
20260509132320 17 44 0.0 0.0 0.61 1.83 1.83 99 1012.1
20260509131816 17 60 0.0 0.0 0.61 1.78 1.78 99 1012.2
20260509131313 17 70 0.0 0.0 0.48 1.73 1.73 99 1012.3
20260509130809 17 73 0.0 1.6 0.48 1.68 1.68 99 1012.6
20260509130305 17 32 0.0 0.0 0.61 1.65 1.65 99 1013.0
20260509125802 17 357 1.6 1.6 0.61 1.60 1.60 99 1013.2
20260509125259 17 36 0.0 0.0 0.61 1.55 1.55 99 1013.3
20260509124755 17 352 0.0 0.0 0.43 1.50 1.50 99 1013.4
20260509124251 17 40 0.0 0.0 0.61 1.45 1.45 99 1013.1
20260509123750 17 1 1.6 3.2 0.79 1.42 1.42 99 1013.3
20260509123247 17 2 1.6 1.6 0.61 1.35 1.35 99 1013.7
20260509122742 17 51 0.0 0.0 0.48 1.30 1.30 99 1013.9
20260509122239 17 70 0.0 0.0 0.48 1.24 1.24 99 1013.7
20260509121736 17 71 0.0 0.0 0.61 1.22 1.22 99 1013.5
20260509121233 17 91 0.0 0.0 0.79 1.17 1.17 99 1013.5
20260509120732 17 93 3.2 3.2 0.79 1.12 1.12 99 1013.2
20260509120229 17 330 3.2 3.2 1.63 1.04 1.04 99 1013.0
20260509115727 17 331 8.0 9.7 1.50 0.99 0.99 99 1013.0
20260509115224 17 160 1.6 3.2 0.36 0.76 0.76 99 1012.9
20260509114722 17 348 3.2 4.8 0.48 0.74 0.74 99 1013.1
20260509114221 17 336 4.8 8.0 1.02 0.71 0.71 99 1013.1
20260509113719 17 331 4.8 8.0 1.98 0.66 0.66 99 1012.8
20260509113216 17 329 4.8 4.8 2.46 0.53 0.53 99 1013.0
20260509112713 17 35 8.0 9.7 1.50 0.33 0.33 99 1013.0
20260509112209 17 9 8.0 14.5 0.48 0.13 0.13 99 1013.5
20260509111706 17 348 4.8 4.8 0.18 0.08 0.08 99 1011.8
20260509111203 17 52 0.0 0.0 0.13 0.05 0.05 99 1010.9
20260509110701 17 20 0.0 0.0 0.13 0.05 0.05 99 1010.9
20260509110157 17 45 0.0 0.0 0.00 0.03 0.03 99 1011.1
20260509105655 17 45 0.0 0.0 0.00 0.03 0.03 99 1010.9
20260509105152 17 46 0.0 0.0 0.00 0.03 0.03 99 1011.0